Regional Weather Roundup
Issued by NWS Cleveland, OH

Home | Current Version | Previous Version | Graphics & Text | Print | Product List | Glossary On
Versions: 1 2 3 4 5 6 7 8 9 10 11 12 13 14 15 16 17 18 19 20 21 22 23 24 25 26 27 28 29 30 31 32 33 34 35 36 37 38 39 40 41 42 43 44 45 46 47 48 49 50
000
ASUS41 KCLE 180710
RWRCLE
OHIO REGIONAL WEATHER ROUNDUP
NATIONAL WEATHER SERVICE CLEVELAND, OH
300 AM EDT FRI APR 18 2014

NOTE: "FAIR" INDICATES FEW OR NO CLOUDS BELOW 12,000 FEET WITH NO
SIGNIFICANT WEATHER AND/OR OBSTRUCTIONS TO VISIBILITY.

OHZ001>008-015>018-024>027-034-035-043-044-180800-
   NORTHWEST OHIO

CITY           SKY/WX    TMP DP  RH WIND       PRES   REMARKS
DEFIANCE       CLOUDY    49  36  61 SW5       30.24F
FINDLAY        PTCLDY    48  36  63 SW6       30.23F
TOLEDO EXPRESS CLOUDY    46  36  68 CALM      30.23F
TOLEDO EXEC    MOCLDY    46  36  68 CALM      30.24F
LIMA           PTCLDY    48  35  60 W3        30.25S
$$

OHZ009>014-019>023-028>033-038-089-180800-
   NORTHEAST OHIO

CITY           SKY/WX    TMP DP  RH WIND       PRES   REMARKS
CLE-HOPKINS    MOCLDY    51  30  44 S14       30.28F
CLE-LAKEFRONT  MOCLDY    52  29  41 SE14      30.24F
CUY CO. ARPT   NOT AVBL
LORAIN-ELYRIA  PTCLDY    50  32  50 S6        30.25F
ASHTABULA      MOCLDY    47  27  45 S10       30.29F
AKRON-CANTON   PTCLDY    51  28  41 SE7       30.28F
WOOSTER        CLEAR     40  32  73 CALM      30.28S
MANSFIELD      PTCLDY    45  33  63 S6        30.25F
YOUNGSTOWN     PTCLDY    45  27  49 SE12      30.29F
$$

OHZ042-051>053-060>062-070>072-077>081-180800-
  SOUTHWEST OHIO

CITY           SKY/WX    TMP DP  RH WIND       PRES   REMARKS
CINC-COVINGTON CLOUDY    48  36  63 CALM      30.25F
CINC-LUNKEN    CLEAR     40  39  97 CALM      30.27F
HAMILTON       CLEAR     41  37  86 CALM      30.26F
DAYTON         PTCLDY    51  34  52 S6        30.26F
WRIGHT-PAT AFB PTCLDY    43  37  79 N2        30.25F
DAYTON GENERAL PTCLDY    47  34  60 CALM      30.24F
WILMINGTON     PTCLDY    44  32  62 CALM      30.25F
$$

OHZ036-037-039>041-045>050-054>059-063>069-073>076-082>088-180800-
  CENTRAL AND SOUTHEAST OHIO

CITY           SKY/WX    TMP DP  RH WIND       PRES   REMARKS
COLUMBUS       PTCLDY    46  35  65 CALM      30.26F
OSU AIRPORT    CLEAR     47  32  56 CALM      30.26F
BOLTON FIELD   CLEAR     46  34  62 CALM      30.26F
RICKENBACK AFB CLEAR     47  34  60 CALM      30.26S
NEWARK         CLEAR     36  33  89 CALM      30.27F
MARION         PTCLDY    43  34  70 S6        30.26S
LANCASTER      CLEAR     37  33  85 CALM      30.27F
ZANESVILLE     CLEAR     45  28  51 SE6       30.28F
NEW PHILLY     CLEAR     47  29  49 SE5       30.30S
$$



USA.gov is the U.S. government's official web portal to all federal, state and local government web resources and services.